CES9976 ZLLL-ZSOF

Flight info

Callsign CES9976
Flight time 1h 41m
Altitude 33100
Route BIGU2G BIGUX W214 HO DCT ZS DCT SHX DCT ML W118 REVKU DCT BIPIM BIP02A
Aircraft B38M/M-SDE1FGHILORVWXY/HB1

Departure

Time 2026-04-16 07:25
Airport Lanzhou Zhongchuan International Airport (ZLLL)

Arrival

Time 2026-04-16 09:07
Airport Hefei Xinqiao International Airport (ZSOF)
Time Latitude Longitude Altitude Speed Heading
2026-04-16 07:09 36.52840 103.62993 6390 ft 0 kts 147°
2026-04-16 07:17 36.52846 103.62988 6390 ft 2 kts 146°
2026-04-16 07:17 36.52860 103.62977 6391 ft 2 kts 147°
2026-04-16 07:17 36.52873 103.62966 6392 ft 2 kts 147°
2026-04-16 07:18 36.52887 103.62955 6391 ft 2 kts 147°
2026-04-16 07:18 36.52902 103.62945 6394 ft 2 kts 182°
2026-04-16 07:18 36.52918 103.62950 6391 ft 2 kts 202°
2026-04-16 07:18 36.52932 103.62959 6391 ft 2 kts 215°
2026-04-16 07:19 36.52944 103.62974 6392 ft 2 kts 245°
2026-04-16 07:19 36.52947 103.62994 6394 ft 2 kts 270°
2026-04-16 07:19 36.52947 103.63001 6393 ft 0 kts 269°
2026-04-16 07:20 36.52947 103.63000 6393 ft 0 kts 269°
2026-04-16 07:21 36.52946 103.62988 6392 ft 3 kts 267°
2026-04-16 07:21 36.52945 103.62947 6392 ft 8 kts 267°
2026-04-16 07:21 36.52941 103.62863 6392 ft 11 kts 267°
2026-04-16 07:21 36.52937 103.62764 6395 ft 12 kts 267°
2026-04-16 07:22 36.52933 103.62661 6391 ft 13 kts 266°
2026-04-16 07:22 36.52988 103.62594 6393 ft 12 kts 350°
2026-04-16 07:22 36.53068 103.62588 6393 ft 11 kts 357°
2026-04-16 07:22 36.53136 103.62573 6396 ft 9 kts 328°
2026-04-16 07:23 36.53155 103.62526 6394 ft 0 kts 270°
2026-04-16 07:23 36.53155 103.62514 6396 ft 4 kts 270°
2026-04-16 07:23 36.53153 103.62447 6396 ft 12 kts 266°
2026-04-16 07:24 36.53098 103.62382 6394 ft 13 kts 177°
2026-04-16 07:24 36.53047 103.62386 6392 ft 7 kts 177°
2026-04-16 07:24 36.52997 103.62389 6393 ft 17 kts 176°
2026-04-16 07:24 36.52497 103.62421 6387 ft 91 kts 177°
2026-04-16 07:25 36.51698 103.62472 6364 ft 139 kts 176°
2026-04-16 07:25 36.50996 103.62514 6357 ft 166 kts 179°
2026-04-16 07:25 36.49849 103.62509 6840 ft 163 kts 182°
2026-04-16 07:25 36.48620 103.62515 7029 ft 191 kts 180°
2026-04-16 07:26 36.47240 103.62571 7547 ft 202 kts 179°
2026-04-16 07:26 36.45359 103.62692 8408 ft 204 kts 178°
2026-04-16 07:26 36.44382 103.62791 8762 ft 216 kts 176°
2026-04-16 07:26 36.42306 103.63035 9337 ft 241 kts 175°
2026-04-16 07:27 36.41147 103.63177 9717 ft 252 kts 178°
2026-04-16 07:27 36.39318 103.63264 10216 ft 273 kts 179°
2026-04-16 07:27 36.37359 103.63360 10737 ft 290 kts 179°
2026-04-16 07:27 36.35298 103.63471 11412 ft 302 kts 179°
2026-04-16 07:28 36.33191 103.63592 12309 ft 304 kts 179°
2026-04-16 07:28 36.31057 103.63719 13124 ft 311 kts 179°
2026-04-16 07:28 36.28894 103.63848 13956 ft 315 kts 180°
2026-04-16 07:28 36.26706 103.64334 14647 ft 323 kts 159°
2026-04-16 07:29 36.24815 103.65841 15423 ft 329 kts 136°
2026-04-16 07:29 36.23480 103.68114 16032 ft 335 kts 114°
2026-04-16 07:29 36.22895 103.70893 16733 ft 337 kts 91°
2026-04-16 07:29 36.23100 103.73785 17382 ft 339 kts 81°
2026-04-16 07:30 36.23311 103.76716 18035 ft 345 kts 84°
2026-04-16 07:30 36.23480 103.79695 18658 ft 350 kts 87°
2026-04-16 07:30 36.23288 103.82761 18966 ft 365 kts 96°
2026-04-16 07:30 36.23020 103.85956 19151 ft 381 kts 94°
2026-04-16 07:31 36.22504 103.93264 19444 ft 417 kts 94°
2026-04-16 07:31 36.22264 103.96920 19552 ft 433 kts 94°
2026-04-16 07:31 36.22020 104.00700 19737 ft 446 kts 94°
2026-04-16 07:32 36.21771 104.04557 20237 ft 449 kts 94°
2026-04-16 07:32 36.21521 104.08418 20790 ft 452 kts 94°
2026-04-16 07:32 36.21268 104.12320 21203 ft 457 kts 94°
2026-04-16 07:32 36.21014 104.16204 21741 ft 460 kts 94°
2026-04-16 07:33 36.20754 104.20167 22140 ft 465 kts 94°
2026-04-16 07:33 36.20490 104.24170 22662 ft 467 kts 94°
2026-04-16 07:33 36.20223 104.28197 23086 ft 472 kts 94°
2026-04-16 07:33 36.19868 104.32251 23537 ft 475 kts 102°
2026-04-16 07:34 36.18812 104.36116 23944 ft 476 kts 118°
2026-04-16 07:34 36.17229 104.39728 24315 ft 479 kts 121°
2026-04-16 07:34 36.15575 104.43340 24664 ft 482 kts 121°
2026-04-16 07:34 36.13913 104.46894 25073 ft 484 kts 122°
2026-04-16 07:35 36.12204 104.50496 25424 ft 487 kts 122°
2026-04-16 07:35 36.10475 104.54113 25798 ft 490 kts 122°
2026-04-16 07:35 36.08736 104.57743 26175 ft 492 kts 122°
2026-04-16 07:35 36.06986 104.61392 26510 ft 495 kts 123°
2026-04-16 07:36 36.05249 104.65008 26866 ft 497 kts 123°
2026-04-16 07:36 36.03477 104.68695 27209 ft 500 kts 123°
2026-04-16 07:36 36.01695 104.72396 27541 ft 502 kts 123°
2026-04-16 07:36 35.99907 104.76107 27885 ft 505 kts 123°
2026-04-16 07:37 35.98106 104.79840 28228 ft 506 kts 123°
2026-04-16 07:37 35.96305 104.83570 28658 ft 506 kts 124°
2026-04-16 07:37 35.94498 104.87306 29125 ft 505 kts 124°
2026-04-16 07:37 35.92701 104.91020 29578 ft 504 kts 124°
2026-04-16 07:38 35.90904 104.94731 30015 ft 504 kts 124°
2026-04-16 07:38 35.89116 104.98444 30416 ft 503 kts 124°
2026-04-16 07:38 35.87328 105.02159 30755 ft 503 kts 124°
2026-04-16 07:38 35.85541 105.05866 31080 ft 503 kts 125°
2026-04-16 07:39 35.83755 105.09565 31425 ft 503 kts 125°
2026-04-16 07:39 35.81967 105.13268 31763 ft 503 kts 125°
2026-04-16 07:39 35.80179 105.16963 32097 ft 503 kts 125°
2026-04-16 07:39 35.78388 105.20663 32452 ft 502 kts 125°
2026-04-16 07:40 35.76622 105.24307 32776 ft 502 kts 125°
2026-04-16 07:40 35.74828 105.28004 33108 ft 503 kts 125°
2026-04-16 07:40 35.73034 105.31696 33265 ft 503 kts 125°
2026-04-16 07:41 35.69438 105.39089 33249 ft 503 kts 125°
2026-04-16 07:41 35.65834 105.46478 33241 ft 504 kts 126°
2026-04-16 07:42 35.62226 105.53862 33236 ft 504 kts 126°
2026-04-16 07:42 35.58602 105.61263 33226 ft 505 kts 126°
2026-04-16 07:43 35.54973 105.68660 33215 ft 506 kts 126°
2026-04-16 07:43 35.53420 105.72556 33198 ft 513 kts 112°
2026-04-16 07:43 35.52583 105.76828 33219 ft 518 kts 104°
2026-04-16 07:44 35.51210 105.85541 33210 ft 521 kts 103°
2026-04-16 07:44 35.49891 105.94280 33199 ft 522 kts 103°
2026-04-16 07:45 35.48569 106.03049 33206 ft 523 kts 103°
2026-04-16 07:45 35.47239 106.11834 33202 ft 524 kts 103°
2026-04-16 07:46 35.45901 106.20630 33195 ft 525 kts 103°
2026-04-16 07:46 35.44554 106.29434 33177 ft 526 kts 104°
2026-04-16 07:47 35.43196 106.38270 33187 ft 527 kts 104°
2026-04-16 07:47 35.41829 106.47115 33180 ft 528 kts 104°
2026-04-16 07:48 35.40462 106.55916 33173 ft 529 kts 104°
2026-04-16 07:48 35.39080 106.64774 33166 ft 530 kts 104°
2026-04-16 07:49 35.37686 106.73655 33158 ft 531 kts 104°
2026-04-16 07:49 35.36283 106.82550 33153 ft 533 kts 103°
2026-04-16 07:50 35.34874 106.91458 33156 ft 533 kts 104°
2026-04-16 07:50 35.33460 107.00365 33155 ft 533 kts 104°
2026-04-16 07:51 35.32042 107.09286 33164 ft 534 kts 104°
2026-04-16 07:51 35.30616 107.18208 33159 ft 535 kts 104°
2026-04-16 07:52 35.29180 107.27154 33146 ft 535 kts 104°
2026-04-16 07:52 35.27979 107.34589 33158 ft 536 kts 105°
2026-04-16 07:53 35.26284 107.45055 33151 ft 537 kts 105°
2026-04-16 07:53 35.24824 107.53956 33153 ft 536 kts 104°
2026-04-16 07:54 35.23578 107.61437 33156 ft 536 kts 104°
2026-04-16 07:54 35.21755 107.71802 33143 ft 533 kts 112°
2026-04-16 07:55 35.19006 107.78440 33133 ft 512 kts 136°
2026-04-16 07:55 35.14065 107.84459 33151 ft 504 kts 144°
2026-04-16 07:56 35.08892 107.90315 33146 ft 503 kts 145°
2026-04-16 07:56 35.03751 107.96035 33149 ft 503 kts 146°
2026-04-16 07:57 34.98577 108.01773 33146 ft 502 kts 146°
2026-04-16 07:57 34.93409 108.07493 33153 ft 502 kts 145°
2026-04-16 07:58 34.88232 108.13212 33147 ft 502 kts 145°
2026-04-16 07:58 34.83061 108.18916 33154 ft 501 kts 145°
2026-04-16 07:59 34.77895 108.24604 33151 ft 501 kts 145°
2026-04-16 07:59 34.72730 108.30282 33144 ft 500 kts 146°
2026-04-16 08:00 34.67590 108.35920 33147 ft 500 kts 145°
2026-04-16 08:00 34.62433 108.41569 33146 ft 499 kts 145°
2026-04-16 08:01 34.58268 108.46123 33148 ft 499 kts 146°
2026-04-16 08:01 34.53151 108.51709 33139 ft 498 kts 146°
2026-04-16 08:02 34.48010 108.57313 33136 ft 496 kts 146°
2026-04-16 08:02 34.40326 108.65669 33146 ft 493 kts 146°
2026-04-16 08:03 34.35319 108.71102 33145 ft 492 kts 146°
2026-04-16 08:03 34.30227 108.76621 33146 ft 490 kts 146°
2026-04-16 08:04 34.25151 108.82113 33155 ft 489 kts 146°
2026-04-16 08:04 34.22834 108.85175 33151 ft 503 kts 132°
2026-04-16 08:04 34.21143 108.88927 33167 ft 516 kts 118°
2026-04-16 08:05 34.18513 108.97028 33161 ft 518 kts 117°
2026-04-16 08:05 34.15935 109.05161 33163 ft 518 kts 117°
2026-04-16 08:06 34.13365 109.13298 33167 ft 518 kts 117°
2026-04-16 08:06 34.10793 109.21421 33164 ft 518 kts 117°
2026-04-16 08:07 34.08234 109.29480 33166 ft 518 kts 117°
2026-04-16 08:07 34.05652 109.37592 33176 ft 518 kts 117°
2026-04-16 08:08 34.03065 109.45695 33167 ft 517 kts 117°
2026-04-16 08:08 34.00477 109.53783 33175 ft 518 kts 117°
2026-04-16 08:09 33.97880 109.61874 33148 ft 518 kts 118°
2026-04-16 08:09 33.95278 109.69964 33147 ft 518 kts 118°
2026-04-16 08:10 33.92672 109.78041 33138 ft 517 kts 118°
2026-04-16 08:10 33.90053 109.86142 33134 ft 520 kts 118°
2026-04-16 08:11 33.87378 109.94216 33126 ft 517 kts 121°
2026-04-16 08:11 33.84543 110.02176 33118 ft 517 kts 120°
2026-04-16 08:12 33.81740 110.10093 33107 ft 517 kts 121°
2026-04-16 08:12 33.78918 110.18049 33117 ft 517 kts 121°
2026-04-16 08:13 33.76099 110.25983 33104 ft 515 kts 121°
2026-04-16 08:13 33.73276 110.33904 33099 ft 515 kts 121°
2026-04-16 08:14 33.70450 110.41812 33101 ft 514 kts 121°
2026-04-16 08:14 33.67627 110.49693 33089 ft 514 kts 121°
2026-04-16 08:15 33.64803 110.57562 33085 ft 513 kts 121°
2026-04-16 08:15 33.61976 110.65416 33075 ft 512 kts 121°
2026-04-16 08:16 33.59146 110.73261 33063 ft 512 kts 121°
2026-04-16 08:16 33.56316 110.81087 33071 ft 511 kts 121°
2026-04-16 08:17 33.53495 110.88868 33062 ft 512 kts 121°
2026-04-16 08:17 33.50649 110.96702 33052 ft 513 kts 121°
2026-04-16 08:19 33.39201 111.28021 33041 ft 514 kts 121°
2026-04-16 08:20 33.36321 111.35854 33033 ft 514 kts 121°
2026-04-16 08:20 33.33436 111.43681 33035 ft 514 kts 121°
2026-04-16 08:21 33.30544 111.51511 33032 ft 515 kts 121°
2026-04-16 08:21 33.27664 111.59288 33024 ft 515 kts 121°
2026-04-16 08:22 33.24783 111.67050 33021 ft 515 kts 121°
2026-04-16 08:22 33.21869 111.74880 33024 ft 516 kts 121°
2026-04-16 08:23 33.18946 111.82719 33022 ft 516 kts 121°
2026-04-16 08:23 33.16017 111.90556 33019 ft 517 kts 121°
2026-04-16 08:24 33.13085 111.98382 33022 ft 517 kts 121°
2026-04-16 08:24 33.10150 112.06197 33020 ft 516 kts 121°
2026-04-16 08:25 33.07207 112.14015 33018 ft 516 kts 121°
2026-04-16 08:25 33.04280 112.21774 33021 ft 516 kts 121°
2026-04-16 08:26 33.01328 112.29579 33020 ft 516 kts 121°
2026-04-16 08:26 32.98375 112.37374 33018 ft 516 kts 121°
2026-04-16 08:27 32.95418 112.45165 33024 ft 516 kts 121°
2026-04-16 08:27 32.92453 112.52957 33023 ft 516 kts 121°
2026-04-16 08:28 32.88957 112.60292 33026 ft 509 kts 129°
2026-04-16 08:28 32.85285 112.67491 33028 ft 509 kts 129°
2026-04-16 08:29 32.81601 112.74683 33030 ft 509 kts 129°
2026-04-16 08:29 32.77911 112.81871 33032 ft 509 kts 129°
2026-04-16 08:30 32.74214 112.89060 33036 ft 509 kts 129°
2026-04-16 08:30 32.70515 112.96240 33033 ft 510 kts 129°
2026-04-16 08:31 32.66808 113.03420 33034 ft 510 kts 128°
2026-04-16 08:31 32.63124 113.10541 33033 ft 510 kts 128°
2026-04-16 08:32 32.59408 113.17713 33036 ft 510 kts 128°
2026-04-16 08:32 32.55690 113.24871 33043 ft 510 kts 128°
2026-04-16 08:33 32.51959 113.32042 33044 ft 511 kts 128°
2026-04-16 08:33 32.48220 113.39216 33038 ft 512 kts 128°
2026-04-16 08:34 32.44475 113.46386 33038 ft 512 kts 128°
2026-04-16 08:34 32.40749 113.53509 33040 ft 512 kts 129°
2026-04-16 08:35 32.37159 113.60804 33033 ft 521 kts 118°
2026-04-16 08:35 32.36083 113.64925 33032 ft 531 kts 104°
2026-04-16 08:35 32.35873 113.69302 33044 ft 539 kts 88°
2026-04-16 08:36 32.36676 113.78150 33041 ft 541 kts 86°
2026-04-16 08:36 32.37477 113.86947 33040 ft 542 kts 86°
2026-04-16 08:37 32.38288 113.95816 33043 ft 542 kts 86°
2026-04-16 08:37 32.38811 114.01573 33047 ft 543 kts 86°
2026-04-16 08:38 32.39612 114.10443 33039 ft 543 kts 86°
2026-04-16 08:38 32.40407 114.19327 33035 ft 543 kts 86°
2026-04-16 08:39 32.41198 114.28228 33037 ft 543 kts 86°
2026-04-16 08:39 32.41982 114.37122 33043 ft 543 kts 86°
2026-04-16 08:40 32.42760 114.46031 33040 ft 544 kts 86°
2026-04-16 08:40 32.43533 114.54943 33043 ft 545 kts 86°
2026-04-16 08:41 32.44296 114.63816 33043 ft 545 kts 86°
2026-04-16 08:41 32.45057 114.72748 33041 ft 545 kts 87°
2026-04-16 08:42 32.45812 114.81682 33036 ft 546 kts 87°
2026-04-16 08:42 32.46441 114.89185 33041 ft 547 kts 87°
2026-04-16 08:43 32.47187 114.98148 33036 ft 547 kts 87°
2026-04-16 08:43 32.47928 115.07129 33042 ft 548 kts 87°
2026-04-16 08:44 32.48663 115.16117 33036 ft 548 kts 87°
2026-04-16 08:44 32.49387 115.25051 33039 ft 549 kts 87°
2026-04-16 08:45 32.50110 115.34060 33040 ft 549 kts 87°
2026-04-16 08:45 32.50827 115.43063 33038 ft 549 kts 87°
2026-04-16 08:46 32.51539 115.52092 33033 ft 550 kts 88°
2026-04-16 08:46 32.52243 115.61112 33035 ft 550 kts 88°
2026-04-16 08:47 32.52943 115.70151 33038 ft 550 kts 88°
2026-04-16 08:47 32.53635 115.79166 33037 ft 548 kts 88°
2026-04-16 08:48 32.54319 115.88167 32420 ft 549 kts 88°
2026-04-16 08:48 32.54651 115.92553 31239 ft 558 kts 87°
2026-04-16 08:48 32.54995 115.97120 30706 ft 551 kts 87°
2026-04-16 08:49 32.55330 116.01595 30324 ft 541 kts 87°
2026-04-16 08:49 32.55656 116.05962 29535 ft 540 kts 87°
2026-04-16 08:49 32.55914 116.10411 28664 ft 538 kts 93°
2026-04-16 08:49 32.55565 116.14789 27863 ft 530 kts 104°
2026-04-16 08:50 32.54649 116.18990 27019 ft 524 kts 112°
2026-04-16 08:50 32.53055 116.22824 26123 ft 514 kts 129°
2026-04-16 08:50 32.50919 116.26188 25283 ft 510 kts 131°
2026-04-16 08:50 32.48740 116.29480 24626 ft 505 kts 132°
2026-04-16 08:51 32.46557 116.32708 24001 ft 499 kts 132°
2026-04-16 08:51 32.44376 116.35890 23318 ft 495 kts 132°
2026-04-16 08:51 32.42210 116.39027 22606 ft 489 kts 132°
2026-04-16 08:51 32.40060 116.42133 21884 ft 484 kts 132°
2026-04-16 08:52 32.37960 116.45162 21208 ft 479 kts 132°
2026-04-16 08:52 32.35840 116.48218 20393 ft 468 kts 131°
2026-04-16 08:52 32.33783 116.51181 19184 ft 465 kts 131°
2026-04-16 08:52 32.31774 116.54072 18137 ft 458 kts 131°
2026-04-16 08:53 32.29761 116.56964 16987 ft 450 kts 131°
2026-04-16 08:53 32.27787 116.59798 15905 ft 442 kts 131°
2026-04-16 08:53 32.25851 116.62578 14890 ft 433 kts 131°
2026-04-16 08:53 32.23969 116.65207 13917 ft 423 kts 137°
2026-04-16 08:54 32.21662 116.67288 12826 ft 412 kts 152°
2026-04-16 08:54 32.19243 116.69012 11946 ft 401 kts 152°
2026-04-16 08:54 32.16919 116.70645 11729 ft 375 kts 152°
2026-04-16 08:54 32.14708 116.72176 11514 ft 363 kts 152°
2026-04-16 08:55 32.12550 116.73657 11278 ft 352 kts 153°
2026-04-16 08:55 32.10461 116.75086 11071 ft 342 kts 153°
2026-04-16 08:55 32.08432 116.76470 10899 ft 330 kts 153°
2026-04-16 08:55 32.06483 116.77800 10740 ft 319 kts 153°
2026-04-16 08:56 32.04580 116.79095 10556 ft 309 kts 153°
2026-04-16 08:56 32.02774 116.80325 10398 ft 299 kts 153°
2026-04-16 08:56 32.00997 116.81534 10227 ft 290 kts 153°
2026-04-16 08:56 31.99280 116.82702 10032 ft 283 kts 153°
2026-04-16 08:57 31.97564 116.83869 9650 ft 286 kts 153°
2026-04-16 08:57 31.95836 116.85044 9253 ft 288 kts 152°
2026-04-16 08:57 31.94098 116.86226 8840 ft 288 kts 152°
2026-04-16 08:57 31.92360 116.87406 8475 ft 287 kts 152°
2026-04-16 08:58 31.90637 116.88577 8135 ft 285 kts 152°
2026-04-16 08:58 31.88927 116.89738 7793 ft 283 kts 152°
2026-04-16 08:58 31.87229 116.90890 7435 ft 281 kts 152°
2026-04-16 08:58 31.85541 116.92036 7102 ft 280 kts 152°
2026-04-16 08:59 31.83854 116.93180 6759 ft 279 kts 152°
2026-04-16 08:59 31.82198 116.94302 6450 ft 276 kts 151°
2026-04-16 08:59 31.80561 116.95411 6297 ft 267 kts 152°
2026-04-16 08:59 31.78974 116.96486 6139 ft 258 kts 151°
2026-04-16 09:00 31.77437 116.97526 5985 ft 251 kts 152°
2026-04-16 09:00 31.76035 116.98706 5706 ft 248 kts 131°
2026-04-16 09:00 31.75278 117.00501 5349 ft 248 kts 98°
2026-04-16 09:00 31.75403 117.02483 5022 ft 242 kts 68°
2026-04-16 09:01 31.76964 117.05911 4486 ft 235 kts 58°
2026-04-16 09:01 31.77770 117.07572 4184 ft 233 kts 58°
2026-04-16 09:01 31.78765 117.08979 3936 ft 223 kts 30°
2026-04-16 09:02 31.80166 117.09489 3854 ft 204 kts 357°
2026-04-16 09:02 31.81457 117.09124 3896 ft 182 kts 335°
2026-04-16 09:02 31.82611 117.08526 3664 ft 181 kts 334°
2026-04-16 09:02 31.83725 117.07866 3400 ft 178 kts 331°
2026-04-16 09:03 31.84802 117.07160 3133 ft 176 kts 330°
2026-04-16 09:03 31.85840 117.06460 2892 ft 164 kts 329°
2026-04-16 09:03 31.86775 117.05829 2679 ft 147 kts 329°
2026-04-16 09:03 31.87662 117.05228 2480 ft 148 kts 329°
2026-04-16 09:04 31.88553 117.04625 2268 ft 148 kts 330°
2026-04-16 09:04 31.89448 117.04020 2067 ft 148 kts 330°
2026-04-16 09:04 31.90320 117.03431 1871 ft 149 kts 330°
2026-04-16 09:04 31.91215 117.02823 1685 ft 148 kts 330°
2026-04-16 09:05 31.92113 117.02216 1472 ft 149 kts 330°
2026-04-16 09:05 31.93011 117.01606 1278 ft 149 kts 330°
2026-04-16 09:05 31.93911 117.00997 1071 ft 149 kts 330°
2026-04-16 09:05 31.94809 117.00391 878 ft 149 kts 330°
2026-04-16 09:06 31.95700 116.99794 678 ft 149 kts 331°
2026-04-16 09:06 31.96603 116.99174 461 ft 148 kts 330°
2026-04-16 09:06 31.97497 116.98565 271 ft 148 kts 330°
2026-04-16 09:06 31.98301 116.98022 227 ft 105 kts 330°
2026-04-16 09:07 31.98746 116.97721 219 ft 58 kts 330°
2026-04-16 09:07 31.98957 116.97518 225 ft 23 kts 306°
2026-04-16 09:07 31.99035 116.97374 222 ft 17 kts 302°
2026-04-16 09:07 31.99100 116.97255 228 ft 17 kts 303°
2026-04-16 09:08 31.99151 116.97123 222 ft 19 kts 285°
2026-04-16 09:08 31.99140 116.96969 224 ft 20 kts 260°
2026-04-16 09:08 31.99132 116.96832 220 ft 15 kts 273°
2026-04-16 09:08 31.99121 116.96772 226 ft 5 kts 226°
2026-04-16 09:09 31.99094 116.96763 226 ft 5 kts 177°
2026-04-16 09:09 31.99063 116.96761 220 ft 0 kts 187°
2026-04-16 09:09 31.99058 116.96760 224 ft 0 kts 186°